Kezdőlap
METAR-TAF:

METAR-TAF

Repülőterek :

Clarion Municipal Airport

Clarion, Iowa, Amerikai Egyesült Államok

földrajzi szélesség: 42-45N, földrajzi hosszúság: 093-46W, magasság: 354 m

Jelenlegi meteorológiai megfigyelések

A jelentés 17 perccel ezelõtt készült, 23:35 UTC
Déli szél 10 kt
Hőmérséklet 4°C
Páratartalom 93%
Légköri nyomás 1013 hPa
Látótávolság: 16.1 km
Derült ég

METAR: KCAV 222335Z AUTO 18010KT 10SM CLR 04/03 A2990 RMK A01

Idő: 17:52 (23:52 UTC)


TAF: hiányzik

Meteorológiai megfigyelések és előrejelzések több, mint 4000 repülőtéren (METAR és TAF jelentéseket).

A térképen piros és sárga pontok jelzik az elérhető meteorológiai állomásokat.

Mozgassa az egeret a pont fölött, hogy megjelenjen az állomás neve.

Azután kattintson az időjárási megfigyelések és előrejelzések megtekintéséhez.

A térkép megváltoztatása: kattintson a fekete keresztel jelölt zöld gombra ráközelítéshez, a vonallal jelölt zöld gombra távolításhoz, vagy a zöld nyilakra a szomszédos térképek eléréséhez.


METAR-TAF: